Location: Davayat
(45.9471°N, 3.1105°E)
Time: 17:29:34
(UTC+00:00)

YAOGAN 1 - Pass Details

Date: 01 December 2020
Orbit: 618 x 620 km, 97.9° (Epoch: 17 January)

Event Time Altitude Azimuth Distance (km) Brightness Sun altitude
Exits shadow 17:09:18 15° 65° (ENE) 1,670 4.1 -11.0°
Maximum altitude 17:09:32 15° 61° (ENE) 1,667 4.1 -11.1°
Drops below altitude 10° 17:12:03 10° 25° (NNE) 1,998 4.8 -11.5°
Sets 17:15:02 0° 3° (N) 2,910 5.8 -12.0°
